Simultaneous Nadir Overpasses (SNOs) Predictions

Prediction of SNOs between GOES-16 and NOAA-19 Satellite Orbit:

Table of predicted SNOs for the next 14.0 days since TLE Epoch: 11/27/2021
Index Date Time (GOES-16) GOES-16 Lat,Lon NOAA-19 Lat,Lon Distance(km) Time Diff (sec)
1 11/27/2021 12:11:19 -0.03, -75.21 -0.38, -73.69 173.32 80
2 11/30/2021 00:32:12 0.03, -75.18 -0.76, -78.64 394.20 80
3 12/01/2021 00:20:25 0.03, -75.18 -0.13, -75.75 66.28 80
4 12/02/2021 00:11:18 0.02, -75.17 0.55, -72.88 261.82 80
5 12/04/2021 12:29:18 -0.02, -75.19 0.56, -77.77 294.53 80
6 12/05/2021 12:20:12 -0.01, -75.19 -0.10, -74.90 33.63 80
7 12/06/2021 12:05:44 -0.01, -75.19 -0.71, -72.01 361.64 80
8 12/09/2021 00:26:35 -0.00, -75.17 -0.39, -76.95 202.98 80
9 12/10/2021 00:14:48 -0.00, -75.18 0.24, -74.07 126.01 80
10 12/11/2021 00:03:01 -0.00, -75.18 0.93, -71.20 455.18 80
